User: anonymous   Login
Location: Unspecified
(0.0000°N, 0.0000°E)
Time: 22:30:49
(UTC+00:00)
Language:

S-NET B - Orbit

View from above orbital plane
View from above orbital plane
View from above satellite
View from above satellite

Ground track
Ground track

The orbit data is extracted from the following two-line orbital elements,

1 43187U 18014H   23343.68634054  .00003671  00000-0  28325-3 0  9998
2 43187  97.6026 243.9827 0011750 292.7583  67.2400 15.02147021319881
Epoch (UTC): 09 December 2023 16:28:19
Eccentricity: 0.0011750
inclination: 97.6026°
perigee height: 552 km
apogee height: 568 km
right ascension of ascending node: 243.9827°
argument of perigee: 292.7583°
revolutions per day: 15.02147021
mean anomaly at epoch: 67.2400°
orbit number at epoch: 31988

The dashed part of the orbit path shows where the satellite is in the earth's shadow,  

DLR